(32434) = 1999 NO52 = 2000 RW96

Discovered at Anderson Mesa on 2000-09-05 by LONEOS.

Orbit

Orbit type: Jupiter Trojan

Note: WebGL enabled browser required.

epoch2023-09-13.0
epoch JD2460200.5
perihelion date2012-08-25.08035
perihelion JD2456164.58035
argument of perihelion (°)103.66314
ascending node (°)256.40843
inclination (°)23.48179
eccentricity0.1486747
perihelion distance (AU)4.4249941
Tisserand w.r.t. Jupiter2.8
ΔV w.r.t. Earth (km/sec)13.8
semimajor axis (AU)5.1977712
mean anomaly (°)335.67626
mean daily motion (°/day)0.08317220
aphelion distance (AU)5.971
period (years)11.85
P-vector [x]0.92178298
P-vector [y]-0.13551606
P-vector [z]0.36325135
Q-vector [x]0.01776454
Q-vector [y]0.95070287
Q-vector [z]0.30959404
absolute magnitude12.03
phase slope0.15
uncertainty0
referenceMPEC 2024-A48
observations used794
oppositions24
arc length (days)15297
first opposition used1982
last opposition used2023
residual rms (arc-secs)0.61
perturbers coarse indicatorM-v
perturbers precise indicator003Ek
first observation date used1982-01-24.0
last observation date used2023-12-12.0
computer nameMPCLINUX
JD of orbit computation2456700.223259
perihelion JD uncertainty (days)5.0655E-04
argument of perihelion uncertainty (°)5.7372E-05
ascending node uncertainty (°)2.2517E-05
inclination uncertainty (°)8.0522E-06
eccentricity uncertainty 8.2612E-08
perihelion distance uncertainty (AU)4.6160E-07
Minimum Orbit Intersection Distances (in AU)
for orbit epoch: 2460200.5, reference: E2024-A48
Mercury4.11157
Venus3.78385
Earth3.51987
Mars3.1572
Jupiter0.05215
Saturn3.97378
Uranus13.1934
Neptune24.9487

Observations

810 total observations over interval: 1982 01 24.66815 – 2023 12 12.225911
These data are available for download (format description).

Date (UT) J2000 RA J2000 Dec Magn Location Ref
1982 01 24.66815 10 11 54.23 -17 31 50.9   260 – Siding Spring Observatory-DSS MPS 27854
1982 01 24.72023 10 11 52.91 -17 31 54.1   260 – Siding Spring Observatory-DSS MPS 27854
1990 10 16.45139 05 18 59.33 +25 56 30.6   261 – Palomar Mountain-DSS MPS 27854
1990 10 16.50000 05 18 58.89 +25 56 24.1   261 – Palomar Mountain-DSS MPS 27854
1996 03 24.64736 13 55 36.09 -32 41 46.3   260 – Siding Spring Observatory-DSS MPS 27854
1996 03 24.69944 13 55 34.82 -32 41 41.9   260 – Siding Spring Observatory-DSS MPS 27854
1999 07 12.31257 20 27 29.72 +04 28 07.4 18.4   704 – Lincoln Laboratory ETS, New Mexico MPS 5705
1999 07 12.32495 20 27 29.28 +04 28 09.2 18.5   704 – Lincoln Laboratory ETS, New Mexico MPS 5705
1999 07 12.33734 20 27 28.92 +04 28 11.0 19.4   704 – Lincoln Laboratory ETS, New Mexico MPS 5705
1999 07 12.34972 20 27 28.51 +04 28 12.1 19.0   704 – Lincoln Laboratory ETS, New Mexico MPS 5705
1999 07 12.36211 20 27 28.12 +04 28 14.1 18.5   704 – Lincoln Laboratory ETS, New Mexico MPS 5705
1999 07 22.23255 20 22 04.33 +04 42 28.5 18.5   704 – Lincoln Laboratory ETS, New Mexico MPS 5705
1999 07 22.24498 20 22 03.88 +04 42 29.0 18.3   704 – Lincoln Laboratory ETS, New Mexico MPS 5705
1999 07 22.25742 20 22 03.43 +04 42 29.5 19.1   704 – Lincoln Laboratory ETS, New Mexico MPS 5705
1999 07 22.28204 20 22 02.60 +04 42 31.8 18.8   704 – Lincoln Laboratory ETS, New Mexico MPS 5705
2000 09 05.12791 23 04 54.85 +26 24 36.2 18.1 R 699 – Lowell Observatory-LONEOS MPS 19684
2000 09 05.15038 23 04 54.20 +26 24 34.0   699 – Lowell Observatory-LONEOS MPS 19684
2000 09 05.17278 23 04 53.42 +26 24 30.1   699 – Lowell Observatory-LONEOS MPS 19684
2000 09 05.19518 23 04 52.71 +26 24 27.1   699 – Lowell Observatory-LONEOS MPS 19684
2000 09 06.28881 23 04 16.72 +26 22 01.6 18.3   704 – Lincoln Laboratory ETS, New Mexico MPS 19684
2000 09 06.30359 23 04 16.24 +26 21 59.0 18.3   704 – Lincoln Laboratory ETS, New Mexico MPS 19684
2000 09 06.31712 23 04 15.79 +26 21 57.3 18.3   704 – Lincoln Laboratory ETS, New Mexico MPS 19684
2000 09 06.33047 23 04 15.33 +26 21 54.8 17.8   704 – Lincoln Laboratory ETS, New Mexico MPS 19684
2000 09 20.48796 22 56 38.80 +25 33 45.9 18.4   608 – Haleakala-AMOS MPS 19684
2000 09 20.49921 22 56 38.43 +25 33 42.7 18.6   608 – Haleakala-AMOS MPS 19684
2000 09 20.51024 22 56 38.10 +25 33 39.7 18.6   608 – Haleakala-AMOS MPS 19684
2000 09 22.29996 22 55 43.55 +25 25 31.8 18.6   704 – Lincoln Laboratory ETS, New Mexico MPS 19684
2000 09 22.31451 22 55 43.11 +25 25 28.1 18.9   704 – Lincoln Laboratory ETS, New Mexico MPS 19684
2000 09 22.33021 22 55 42.56 +25 25 23.7 18.9   704 – Lincoln Laboratory ETS, New Mexico MPS 19684
2000 09 22.34487 22 55 42.13 +25 25 19.2 19.0   704 – Lincoln Laboratory ETS, New Mexico MPS 19684
2000 09 26.38145 22 53 44.13 +25 05 38.5 18.6   608 – Haleakala-AMOS MPS 19684
2000 09 26.39285 22 53 43.80 +25 05 35.1 18.4   608 – Haleakala-AMOS MPS 19684
2000 09 26.40371 22 53 43.50 +25 05 32.0 18.6   608 – Haleakala-AMOS MPS 19684
2000 09 28.25787 22 52 51.99 +24 55 52.9 17.8   704 – Lincoln Laboratory ETS, New Mexico MPS 19684
2000 09 28.27289 22 52 51.59 +24 55 48.5 18.1   704 – Lincoln Laboratory ETS, New Mexico MPS 19684
2000 09 28.28772 22 52 51.14 +24 55 43.5 18.2   704 – Lincoln Laboratory ETS, New Mexico MPS 19684
2000 09 28.30271 22 52 50.70 +24 55 39.1 18.8   704 – Lincoln Laboratory ETS, New Mexico MPS 19684
2000 09 30.24250 22 51 58.87 +24 45 11.1 18.4   704 – Lincoln Laboratory ETS, New Mexico MPS 19684
2000 09 30.25743 22 51 58.51 +24 45 06.3 19.7   704 – Lincoln Laboratory ETS, New Mexico MPS 19684
2000 09 30.27319 22 51 58.04 +24 45 01.0 19.2   704 – Lincoln Laboratory ETS, New Mexico MPS 19684
2000 09 30.28965 22 51 57.58 +24 44 55.3 18.7   704 – Lincoln Laboratory ETS, New Mexico MPS 19684
2000 09 30.30493 22 51 57.28 +24 44 50.4 20.3   704 – Lincoln Laboratory ETS, New Mexico MPS 19684
2000 11 01.14808 22 44 29.40 +21 27 35.6 18.3   704 – Lincoln Laboratory ETS, New Mexico MPS 21133
2000 11 01.16394 22 44 29.41 +21 27 29.8 19.0   704 – Lincoln Laboratory ETS, New Mexico MPS 21133
2000 11 01.17990 22 44 29.36 +21 27 24.0 18.8   704 – Lincoln Laboratory ETS, New Mexico MPS 21133
2000 11 01.19491 22 44 29.36 +21 27 17.0 19.8   704 – Lincoln Laboratory ETS, New Mexico MPS 21133
2000 11 01.20910 22 44 29.35 +21 27 13.2 19.0   704 – Lincoln Laboratory ETS, New Mexico MPS 21133
2000 11 28.06970 22 49 56.06 +19 05 20.9 19.3   704 – Lincoln Laboratory ETS, New Mexico MPS 22455
2000 11 28.08425 22 49 56.39 +19 05 17.1 19.8   704 – Lincoln Laboratory ETS, New Mexico MPS 22455
2000 11 28.11437 22 49 57.11 +19 05 09.4 20.5   704 – Lincoln Laboratory ETS, New Mexico MPS 22455
2000 12 22.07831 23 03 02.06 +17 56 37.5 19.0   704 – Lincoln Laboratory ETS, New Mexico MPS 23814
2000 12 22.09377 23 03 02.73 +17 56 34.9 18.7   704 – Lincoln Laboratory ETS, New Mexico MPS 23814
2000 12 22.10929 23 03 03.32 +17 56 35.0 18.8   704 – Lincoln Laboratory ETS, New Mexico MPS 23814
2000 12 22.12477 23 03 04.02 +17 56 33.3 19.1   704 – Lincoln Laboratory ETS, New Mexico MPS 23814
2000 12 23.06274 23 03 42.54 +17 55 06.9 18.9   704 – Lincoln Laboratory ETS, New Mexico MPS 23814
2000 12 23.07803 23 03 43.09 +17 55 06.0 19.0   704 – Lincoln Laboratory ETS, New Mexico MPS 23814
2000 12 23.09318 23 03 43.83 +17 55 04.7 19.0   704 – Lincoln Laboratory ETS, New Mexico MPS 23814
2000 12 23.10832 23 03 44.43 +17 55 03.7 19.3   704 – Lincoln Laboratory ETS, New Mexico MPS 23814
2000 12 23.12345 23 03 44.99 +17 55 01.6 18.9   704 – Lincoln Laboratory ETS, New Mexico MPS 23814
2001 09 28.32731 02 42 50.09 +34 09 41.8 19.2   704 – Lincoln Laboratory ETS, New Mexico MPS 35769
2001 09 28.34239 02 42 49.80 +34 09 41.7 19.1   704 – Lincoln Laboratory ETS, New Mexico MPS 35769
2001 09 28.35726 02 42 49.46 +34 09 43.2 20.0   704 – Lincoln Laboratory ETS, New Mexico MPS 35769
2001 09 28.38700 02 42 48.80 +34 09 41.6 20.2   704 – Lincoln Laboratory ETS, New Mexico MPS 35769
2001 10 15.31901 02 35 13.10 +33 33 20.3 18.1   704 – Lincoln Laboratory ETS, New Mexico MPS 37653
2001 10 15.33479 02 35 12.58 +33 33 17.5 18.5   704 – Lincoln Laboratory ETS, New Mexico MPS 37653
2001 10 15.35056 02 35 12.05 +33 33 14.1 18.4   704 – Lincoln Laboratory ETS, New Mexico MPS 37653
2001 10 15.36632 02 35 11.52 +33 33 11.4 18.5   704 – Lincoln Laboratory ETS, New Mexico MPS 37653
2001 10 15.38210 02 35 10.99 +33 33 08.3 18.4   704 – Lincoln Laboratory ETS, New Mexico MPS 37653
2001 10 27.24521 02 28 25.14 +32 46 09.2 18.7   704 – Lincoln Laboratory ETS, New Mexico MPS 39158
2001 10 27.26158 02 28 24.62 +32 46 04.3 18.8   704 – Lincoln Laboratory ETS, New Mexico MPS 39158
2001 10 27.27796 02 28 23.97 +32 46 00.1 18.9   704 – Lincoln Laboratory ETS, New Mexico MPS 39158
2001 10 27.29434 02 28 23.44 +32 45 55.2 18.7   704 – Lincoln Laboratory ETS, New Mexico MPS 39158
2001 11 11.22064 02 19 38.91 +31 25 25.4 18.7   704 – Lincoln Laboratory ETS, New Mexico MPS 40230
2001 11 11.23511 02 19 38.41 +31 25 19.7 19.2   704 – Lincoln Laboratory ETS, New Mexico MPS 40230
2001 11 11.24960 02 19 37.94 +31 25 14.5 18.9   704 – Lincoln Laboratory ETS, New Mexico MPS 40230
2001 11 11.26415 02 19 37.43 +31 25 08.9 19.1   704 – Lincoln Laboratory ETS, New Mexico MPS 40230
2001 11 11.27864 02 19 36.92 +31 25 04.1 19.1   704 – Lincoln Laboratory ETS, New Mexico MPS 40230
2001 11 19.33781 02 15 20.78 +30 34 38.5 18.2   644 – Palomar Mountain/NEAT MPS 41822
2001 11 19.35902 02 15 20.12 +30 34 30.1 18.3   644 – Palomar Mountain/NEAT MPS 41822
2001 11 19.38035 02 15 19.47 +30 34 21.7 18.3   644 – Palomar Mountain/NEAT MPS 41822
2001 12 10.22390 02 07 38.49 +28 18 24.3 18.5   704 – Lincoln Laboratory ETS, New Mexico MPS 46374
2001 12 10.23955 02 07 38.23 +28 18 18.3 19.1   704 – Lincoln Laboratory ETS, New Mexico MPS 46374
2001 12 10.25514 02 07 38.03 +28 18 12.2 18.9   704 – Lincoln Laboratory ETS, New Mexico MPS 46374
2001 12 10.27066 02 07 37.78 +28 18 06.3 19.1   704 – Lincoln Laboratory ETS, New Mexico MPS 46374
2001 12 10.28614 02 07 37.55 +28 18 00.4 19.1   704 – Lincoln Laboratory ETS, New Mexico MPS 46374
